Date String (YYYY-MM-DD hh:mm:ss) UTC,Instrument flags,Ambient pressure (hPa),Sample flow (lpm),Bypass flow (lpm),Sample temperature (°C),Ambient temperature (°C),ASC tube jacket temperature (°C),LED temperature (°C),Box temperature (°C),Sample RH (%),Span deviation,Mass concentration (μg/m³),Mass concentration (μg/m³),Mass concentration (μg/m³)
DateTimeUTC,F1_M11,P_M11,Q1_M11,Q2_M11,T1_M11,T2_M11,T3_M11,T4_M11,T5_M11,U1_M11,ZSPAN_M11,X0_M11,X2_M11,X1_M11
2022-06-23 09:00:00,,0826.7,4.99,0.00,30.1,29.1,00.0,38.9,32.0,14.3,0000.0,0013.62,0005.07,0003.91
2022-06-23 09:01:00,,0826.7,5.01,0.00,30.1,29.1,00.0,38.9,32.0,14.4,0000.0,0014.04,0004.98,0003.89
2022-06-23 09:02:00,,0826.7,5.01,0.00,30.1,29.1,00.0,38.9,32.0,14.4,0000.0,0014.27,0004.94,0003.90
2022-06-23 09:03:00,,0826.7,5.00,0.00,30.1,29.1,00.0,38.9,32.0,14.4,0000.0,0013.69,0004.93,0003.89
2022-06-23 09:04:00,,0826.7,5.00,0.00,30.1,29.1,00.0,39.0,32.0,14.4,0000.0,0013.71,0004.95,0003.89
2022-06-23 09:05:00,,0826.7,4.99,0.00,30.2,29.1,00.0,39.0,32.0,14.4,0000.0,0013.43,0004.95,0003.89
2022-06-23 09:06:00,,0826.6,5.00,0.00,30.2,29.1,00.0,39.0,32.0,14.4,0000.0,0012.94,0004.93,0003.88
2022-06-23 09:07:00,,0826.7,5.00,0.00,30.2,29.1,00.0,39.0,32.0,14.3,0000.0,0012.91,0004.94,0003.88
2022-06-23 09:08:00,,0826.7,5.00,0.00,30.2,29.1,00.0,39.0,32.0,14.3,0000.0,0013.17,0004.94,0003.88
2022-06-23 09:09:00,,0826.7,5.01,0.00,30.2,29.1,00.0,39.0,32.0,14.3,0000.0,0013.28,0004.91,0003.88
2022-06-23 09:10:00,,0826.7,5.00,0.00,30.2,29.1,00.0,39.0,32.0,14.4,0000.0,0013.65,0004.86,0003.88
2022-06-23 09:11:00,,0826.7,4.98,0.00,30.2,29.1,00.0,39.0,32.0,14.3,0000.0,0013.45,0004.83,0003.87
2022-06-23 09:12:00,,0826.7,5.00,0.00,30.2,29.1,00.0,39.0,32.0,14.2,0000.0,0012.90,0004.82,0003.87
2022-06-23 09:13:00,,0826.7,5.01,0.00,30.2,29.1,00.0,39.0,32.0,14.1,0000.0,0012.93,0004.81,0003.86
2022-06-23 09:14:00,,0826.7,5.00,0.00,30.2,29.1,00.0,39.0,32.0,14.1,0000.0,0012.80,0004.74,0003.86
2022-06-23 09:15:00,,0826.7,4.99,0.00,30.2,29.2,00.0,39.0,32.0,14.2,0000.0,0013.34,0004.70,0003.85
2022-06-23 09:16:00,,0826.7,5.00,0.00,30.2,29.2,00.0,39.0,32.0,14.2,0000.0,0013.45,0004.70,0003.85
2022-06-23 09:17:00,,0826.7,5.00,0.00,30.2,29.2,00.0,39.0,32.1,14.2,0000.0,0013.20,0004.71,0003.84
2022-06-23 09:18:00,,0826.7,5.00,0.00,30.2,29.2,00.0,39.0,32.1,14.2,0000.0,0013.05,0004.68,0003.84
2022-06-23 09:19:00,,0826.7,5.00,0.00,30.2,29.2,00.0,39.1,32.1,14.2,0000.0,0012.60,0004.65,0003.82
2022-06-23 09:20:00,,0826.7,5.00,0.00,30.2,29.2,00.0,39.1,32.1,14.2,0000.0,0012.27,0004.65,0003.81
2022-06-23 09:21:00,,0826.7,5.00,0.00,30.3,29.2,00.0,39.1,32.1,14.1,0000.0,0011.52,0004.68,0003.81
2022-06-23 09:22:00,,0826.7,5.00,0.00,30.3,29.2,00.0,39.1,32.1,14.2,0000.0,0011.42,0004.68,0003.80
2022-06-23 09:23:00,,0826.7,5.00,0.00,30.3,29.2,00.0,39.1,32.1,13.9,0000.0,0012.01,0004.64,0003.78
2022-06-23 09:24:00,,0826.7,4.99,0.00,30.3,28.9,00.0,39.1,32.0,14.1,0000.0,0011.09,0004.60,0003.77
2022-06-23 09:25:00,,0826.7,5.00,0.00,30.2,28.0,00.0,39.0,31.8,13.9,0000.0,0011.46,0004.63,0003.76
2022-06-23 09:26:00,,0826.7,5.00,0.00,30.1,27.6,00.0,38.9,31.7,14.0,0000.0,0011.26,0004.68,0003.76
2022-06-23 09:27:00,,0826.7,5.00,0.00,30.0,27.5,00.0,38.9,31.5,14.1,0000.0,0011.30,0004.70,0003.75
2022-06-23 09:28:00,,0826.7,4.99,0.00,29.9,27.5,00.0,38.9,31.5,14.4,0000.0,0011.43,0004.69,0003.74
2022-06-23 09:29:00,,0826.7,5.00,0.00,29.9,27.6,00.0,38.8,31.5,14.8,0000.0,0011.83,0004.71,0003.73
2022-06-23 09:30:00,,0826.7,5.01,0.00,29.8,27.7,00.0,38.8,31.5,14.6,0000.0,0012.13,0004.75,0003.75
2022-06-23 09:31:00,,0826.7,5.01,0.00,29.8,27.9,00.0,38.8,31.5,14.6,0000.0,0012.56,0004.74,0003.74
2022-06-23 09:32:00,,0826.7,5.00,0.00,29.8,28.0,00.0,38.8,31.5,14.7,0000.0,0013.06,0004.73,0003.73
2022-06-23 09:33:00,,0826.7,5.00,0.00,29.8,28.1,00.0,38.8,31.5,14.8,0000.0,0014.02,0004.81,0003.74
2022-06-23 09:34:00,,0826.6,4.99,0.00,29.8,28.2,00.0,38.7,31.5,14.8,0000.0,0013.69,0004.91,0003.76
2022-06-23 09:35:00,,0826.7,5.01,0.00,29.8,28.3,00.0,38.7,31.6,14.9,0000.0,0013.66,0004.98,0003.78
2022-06-23 09:36:00,,0826.7,5.00,0.00,29.8,28.3,00.0,38.7,31.6,15.0,0000.0,0012.93,0004.99,0003.79
2022-06-23 09:37:00,,0826.7,5.01,0.00,29.8,28.4,00.0,38.7,31.6,15.0,0000.0,0012.66,0004.98,0003.81
2022-06-23 09:38:00,,0826.7,5.00,0.00,29.8,28.4,00.0,38.7,31.6,15.0,0000.0,0013.47,0005.03,0003.83
2022-06-23 09:39:00,,0826.7,4.99,0.00,29.8,28.5,00.0,38.7,31.6,15.0,0000.0,0013.68,0005.07,0003.84
2022-06-23 09:40:00,,0826.7,5.00,0.00,29.8,28.5,00.0,38.7,31.6,14.6,0000.0,0013.44,0005.05,0003.84
2022-06-23 09:41:00,,0826.7,5.01,0.00,29.8,28.6,00.0,38.7,31.7,14.8,0000.0,0013.13,0005.01,0003.83
2022-06-23 09:42:00,,0826.7,5.01,0.00,29.8,28.6,00.0,38.7,31.7,14.9,0000.0,0013.47,0005.04,0003.85
2022-06-23 09:43:00,,0826.7,4.98,0.00,29.8,28.6,00.0,38.7,31.7,14.9,0000.0,0013.24,0005.06,0003.87
2022-06-23 09:44:00,,0826.7,5.00,0.00,29.8,28.7,00.0,38.7,31.7,14.9,0000.0,0012.64,0005.07,0003.89
2022-06-23 09:45:00,,0826.7,5.00,0.00,29.8,28.7,00.0,38.7,31.7,14.9,0000.0,0012.54,0005.01,0003.88
2022-06-23 09:46:00,,0826.7,5.00,0.00,29.9,28.7,00.0,38.7,31.7,15.1,0000.0,0012.47,0005.02,0003.89
2022-06-23 09:47:00,,0826.7,5.00,0.00,29.9,28.7,00.0,38.7,31.7,15.1,0000.0,0012.92,0005.13,0003.90
2022-06-23 09:48:00,,0826.7,5.00,0.00,29.9,28.8,00.0,38.7,31.7,15.1,0000.0,0014.91,0005.19,0003.90
2022-06-23 09:49:00,,0826.7,4.99,0.00,29.9,28.8,00.0,38.7,31.7,15.1,0000.0,0015.65,0005.20,0003.91
2022-06-23 09:50:00,,0826.7,5.00,0.00,29.9,28.8,00.0,38.7,31.8,15.1,0000.0,0015.50,0005.22,0003.92
2022-06-23 09:51:00,,0826.7,5.01,0.00,29.9,28.8,00.0,38.7,31.7,15.1,0000.0,0016.30,0005.25,0003.93
2022-06-23 09:52:00,,0826.6,5.01,0.00,29.9,28.9,00.0,38.8,31.8,15.2,0000.0,0016.27,0005.26,0003.95
2022-06-23 09:53:00,,0826.7,5.00,0.00,29.9,28.9,00.0,38.8,31.8,15.2,0000.0,0016.05,0005.26,0003.97
2022-06-23 09:54:00,,0826.7,4.98,0.00,30.0,28.9,00.0,38.8,31.8,15.2,0000.0,0017.11,0005.28,0003.97
2022-06-23 09:55:00,,0826.7,4.99,0.00,30.0,28.9,00.0,38.8,31.8,15.2,0000.0,0017.57,0005.32,0003.99
2022-06-23 09:56:00,,0826.7,5.00,0.00,30.0,28.9,00.0,38.8,31.8,15.1,0000.0,0017.75,0005.35,0004.00
2022-06-23 09:57:00,,0826.7,5.01,0.00,30.0,28.9,00.0,38.8,31.9,15.2,0000.0,0017.82,0005.38,0004.01
2022-06-23 09:58:00,,0826.7,5.00,0.00,30.0,29.0,00.0,38.8,31.9,15.1,0000.0,0018.24,0005.35,0004.02
2022-06-23 09:59:00,,0826.6,5.00,0.00,30.0,29.0,00.0,38.8,31.9,15.1,0000.0,0016.43,0005.32,0004.03
